Location: Mount Kobau Star Party
(49.1167°N, 119.7333°W)
Time: 07:16:07
(UTC-07:00)

ACS3 Solar Sail - Pass Details

Date: 23 June 2024
Orbit: 992 x 1023 km, 97.4° (Epoch: 11 July)

Event Time Altitude Azimuth Distance (km) Brightness Sun altitude
Exits shadow 23:37:09 - 209° (SSW) 3,117 7.1 -15.1°
Reaches altitude 10° 23:38:19 10° 215° (SW) 2,758 6.8 -15.1°
Maximum altitude 23:43:24 26° 271° (W) 1,841 6.4 -15.4°
Drops below altitude 10° 23:48:31 10° 326° (NNW) 2,764 8.4 -15.7°
Sets 23:51:28 0° 339° (NNW) 3,718 9.7 -15.8°
